Weather History for Gillette, WY

Change the Weather History Date:

Thursday, March 7, 2013

  Actual Average Record
Temperature  
Mean Temperature 38 °F 32 °F  
Max Temperature 50 °F 44 °F 63 °F (1970)
Min Temperature 25 °F 21 °F -13 °F (1932)
Degree Days  
Heating Degree Days 27 33  
Month to date heating degree days 219 234  
Since 1 July heating degree days 5342 5642  
Cooling Degree Days 0 0  
Month to date cooling degree days 0 0  
Year to date cooling degree days 0 0  
Moisture  
Dew Point 23 °F    
Average Humidity 57    
Maximum Humidity 84    
Minimum Humidity 29    
Precipitation  
Precipitation 0.00 in 0.02 in 0.20 in (1931)
Month to date precipitation 0.01 0.16  
Year to date precipitation 1.14 0.94  
Sea Level Pressure  
Sea Level Pressure 29.93 in    
Wind  
Wind Speed 7 mph (North)    
Max Wind Speed 22 mph    
Max Gust Speed 26 mph    
Visibility 10 miles    
Events      
T = Trace of Precipitation, MM = Missing Value Source: NWS Daily Summary

Daily Weather History Graph

Daily Weather History Graph

Search for Another Location

Airport:

Trip Planner

Search our weather history database for the weather conditions in past years. The results will help you decide how hot, cold, wet, or windy it might be!

Date:

Astronomy

Mar. 07, 2013 Rise Set
Actual Time 6:28 AM MST 5:58 PM MST
Civil Twilight 5:59 AM MST 6:27 PM MST
Nautical Twilight 5:25 AM MST 7:01 PM MST
Astronomical Twilight 4:52 AM MST 7:35 PM MST
Moon 3:38 AM MST (3/7) 1:41 PM MST (3/7)
Length of Visible Light 12h 28m
Length of Day
11h 30m
Waning Crescent, 19% of the Moon is Illuminated
Mar 7
Waning Crescent
Mar 11
New
Mar 19
First Quarter
Mar 27
Full
Apr 2
Last Quarter

Hourly Weather History & Observations

Time (MST) Temp. Windchill Dew Point Humidity Pressure Visibility Wind Dir Wind Speed Gust Speed Precip Events Conditions
12:53 AM 41.0 °F 32.8 °F 25.0 °F 53% 29.71 in 10.0 mi SSW 16.1 mph - N/A   Clear
1:53 AM 42.1 °F 34.2 °F 24.1 °F 49% 29.72 in 10.0 mi SW 16.1 mph - N/A   Clear
2:53 AM 39.0 °F 33.4 °F 24.1 °F 55% 29.73 in 10.0 mi SW 8.1 mph - N/A   Clear
3:53 AM 36.0 °F 30.3 °F 25.0 °F 64% 29.75 in 10.0 mi NW 6.9 mph - N/A   Clear
4:53 AM 30.9 °F 27.5 °F 25.0 °F 79% 29.81 in 10.0 mi West 3.5 mph - N/A   Clear
5:53 AM 34.0 °F 31.0 °F 26.1 °F 73% 29.83 in 10.0 mi SW 3.5 mph - N/A   Clear
6:53 AM 32.0 °F - 25.0 °F 75% 29.88 in 10.0 mi Calm Calm - N/A   Clear
7:53 AM 36.0 °F - 28.0 °F 73% 29.92 in 10.0 mi Calm Calm - N/A   Clear
8:53 AM 43.0 °F 36.8 °F 26.1 °F 51% 29.92 in 10.0 mi NNW 11.5 mph - N/A   Clear
9:53 AM 45.0 °F 39.7 °F 24.1 °F 44% 29.91 in 10.0 mi North 10.4 mph - N/A   Clear
10:53 AM 46.9 °F - 23.0 °F 39% 29.93 in 10.0 mi North 11.5 mph - N/A   Clear
11:53 AM 48.0 °F - 18.0 °F 30% 29.95 in 10.0 mi North 10.4 mph 17.3 mph N/A   Clear
12:53 PM 48.0 °F - 19.0 °F 32% 29.96 in 10.0 mi NE 13.8 mph - N/A   Clear
1:53 PM 48.9 °F - 18.0 °F 29% 29.96 in 10.0 mi North 12.7 mph - N/A   Clear
2:53 PM 50.0 °F - 19.0 °F 29% 29.96 in 10.0 mi NNE 9.2 mph - N/A   Clear
3:53 PM 48.0 °F - 19.9 °F 33% 29.98 in 10.0 mi NNE 9.2 mph - N/A   Clear
4:53 PM 46.0 °F 40.6 °F 19.9 °F 35% 30.01 in 10.0 mi NE 11.5 mph - N/A   Clear
5:53 PM 41.0 °F 36.4 °F 24.1 °F 51% 30.02 in 10.0 mi ENE 6.9 mph - N/A   Clear
6:53 PM 37.0 °F - 25.0 °F 62% 30.06 in 10.0 mi Calm Calm - N/A   Clear
7:53 PM 36.0 °F - 26.1 °F 67% 30.08 in 10.0 mi Calm Calm - N/A   Clear
8:53 PM 35.1 °F 31.0 °F 26.1 °F 70% 30.07 in 10.0 mi North 4.6 mph - N/A   Clear
9:53 PM 30.9 °F - 25.0 °F 79% 30.09 in 10.0 mi Calm Calm - N/A   Clear
10:53 PM 26.1 °F - 23.0 °F 88% 30.08 in 10.0 mi Calm Calm - N/A   Clear
11:53 PM 26.1 °F - 23.0 °F 88% 30.07 in 10.0 mi Calm Calm - N/A   Clear